[[{"header":{"parameterUnit":"m.s-1","parameterCategory":1,"la1":30.2991,"la2":30.254,"lo1":-89.0895,"lo2":-89.0444,"dy":0.0017,"dx":0.0017,"nx":28,"ny":28,"refTime":"2023-09-26T03:00:00:Z","depth":0,"parameterNumber":2,"parameterNumberName":"U-component_of_WINDS"},"data":[0,0,0,0,0,0,0,0,0,0,0,0,0,0,0,0,0,0,0,0,0,0,0,0,0,0,0,0,0,0,0,0,0,0,0,0,0,0,0,0,0,0,0,0,0,0,0,0,0,0,0,0,0,0,0,0,0,0,-4.469,-4.4691,0,-4.4801,-4.4802,-4.4803,-4.4758,-4.4755,-4.4752,-4.475,-4.4864,-4.4869,-4.4874,0,0,0,0,0,0,0,0,0,0,0,0,0,-4.4438,-4.4442,-4.4689,-4.4691,-4.4692,-4.4801,-4.4802,-4.4804,-4.4758,-4.4755,-4.4752,-4.4749,-4.4862,-4.4868,-4.4875,0,0,0,0,0,0,0,0,0,0,0,0,0,-4.4548,-4.4444,-4.4689,-4.4683,-4.4683,-4.48,-4.4802,-4.4804,-4.4759,-4.4755,-4.4751,-4.4747,-4.486,-4.4868,-4.4876,-4.5006,0,0,-4.4901,-4.4905,0,0,0,0,0,0,0,0,-4.4542,-4.4557,-4.4682,-4.4683,-4.4684,-4.4761,-4.4755,-4.4872,-4.476,-4.473,-4.475,-4.4745,-4.4833,-4.4843,-4.4873,-4.5011,-4.5016,-4.4902,-4.4907,-4.491,-4.4913,0,0,0,0,0,0,0,-4.4534,-4.4552,-4.4733,-4.4684,-4.4685,-4.4674,-4.4685,-4.4777,-4.4802,-4.4732,-4.4729,-4.4743,-4.4833,-4.4865,-4.4875,-4.5018,-4.4901,-4.4909,-4.4914,-4.4917,-4.5269,-4.5273,0,0,0,0,0,0,-4.4526,-4.4546,-4.473,-4.4737,-4.4602,-4.4682,-4.4695,-4.4741,-4.4801,-4.4807,-4.4746,-4.4741,-4.4853,-4.4865,-4.4879,-4.5034,-4.491,-4.4918,-4.4923,-4.5265,-4.527,-4.5275,0,0,0,0,0,0,-4.4521,-4.4543,-4.4725,-4.4641,-4.4663,-4.469,-4.4743,-4.4745,-4.4777,-4.4812,-4.4816,-4.4775,-4.485,-4.4867,-4.4975,-4.5037,-4.4922,-4.4929,-4.526,-4.5266,-4.5272,-4.5346,0,0,0,0,0,0,-4.4514,-4.4541,-4.4591,-4.4642,-4.4668,-4.482,-4.4746,-4.475,-4.4791,-4.4785,-4.4839,-4.4845,-4.4848,-4.4963,-4.4983,-4.5047,-4.4936,-4.5254,-4.5263,-4.527,-4.5338,-4.5355,-4.5369,0,0,0,0,0,-4.4505,-4.4607,-4.4594,-4.4616,-4.473,-4.4823,-4.4838,-4.484,-4.4797,-4.4846,-4.4869,-4.4843,-4.5028,-4.4974,-4.4996,-4.5064,-4.525,-4.526,-4.527,-4.5332,-4.5351,-4.5368,0,0,0,0,0,0,-4.4562,-4.4614,-4.4599,-4.4721,-4.4768,-4.4815,-4.4878,-4.4861,-4.4921,-4.4912,-4.4913,-4.4926,-4.5036,-4.5061,-4.5,-4.5193,-4.5132,-4.5147,-4.5172,-4.5191,-4.5206,-4.5196,-4.4942,0,0,0,0,0,-4.4589,-4.466,-4.4702,-4.4805,-4.483,-4.485,-4.4891,-4.4889,-4.4937,-4.4957,-4.4987,-4.5035,-4.5104,-4.515,-4.5215,-4.5343,-4.5354,-4.5401,-4.5416,-4.5428,-4.544,-4.5508,-4.5529,-4.5307,-4.5307,-4.5307,0,0,-4.4645,-4.4682,-4.4727,-4.4818,-4.4854,-4.4927,-4.4867,-4.4947,-4.5002,-4.4969,-4.5071,-4.5096,-4.515,-4.5268,-4.5322,-4.5292,-4.5504,-4.5441,-4.545,-4.5455,-4.5521,-4.5542,-4.556,-4.5314,-4.5313,-4.5312,0,0,-4.4784,-4.482,-4.4909,-4.4947,-4.5003,-4.5016,-4.5038,-4.5089,-4.5103,-4.5207,-4.5184,-4.5249,-4.5368,-4.5407,-4.5443,-4.5599,-4.5576,-4.5621,-4.5698,-4.5765,-4.5783,-4.5798,-4.5852,-4.5871,-4.5633,-4.5633,-4.5633,0,-4.4846,-4.4955,-4.4957,-4.504,-4.508,-4.5055,-4.5146,-4.5182,-4.5257,-4.5285,-4.5252,-4.5401,-4.5436,-4.5562,-4.56,-4.5631,-4.5655,-4.5612,-4.578,-4.5796,-4.581,-4.5861,-4.5882,-4.5638,-4.5637,-4.5637,-4.5636,0,-4.5028,-4.5105,-4.517,-4.5243,-4.5291,-4.5377,-4.5393,-4.5442,-4.5436,-4.5453,-4.5559,-4.56,-4.5673,-4.5704,-4.57,-4.583,-4.581,-4.5779,-4.5717,-4.5836,-4.5884,-4.5904,-4.5645,-4.5643,-4.5642,-4.564,0,0,-4.5202,-4.5276,-4.53,-4.5332,-4.5393,-4.5452,-4.5538,-4.561,-4.5651,-4.5705,-4.5775,-4.5878,-4.5849,-4.589,-4.589,-4.5949,-4.6068,-4.5911,-4.5912,-4.5936,-4.6214,-4.6234,-4.6257,-4.6056,-4.606,-4.6063,-4.6208,0,-4.5343,-4.5492,-4.5498,-4.5634,-4.5704,-4.5683,-4.5757,-4.5803,-4.5822,-4.5885,-4.5906,-4.5977,-4.5936,-4.596,-4.6018,-4.6042,-4.6124,-4.6032,-4.612,-4.6123,-4.6104,-4.6283,-4.6305,-4.644,-4.6227,-4.623,-4.6233,0,-4.5527,-4.5586,-4.5729,-4.578,-4.5809,-4.5876,-4.5942,-4.6003,-4.6055,-4.6065,-4.6111,-4.6103,-4.619,-4.6129,-4.625,-4.6187,-4.6224,-4.6242,-4.6247,-4.6253,-4.6183,-4.629,-4.6483,-4.6502,-4.6263,-4.626,-4.6258,0,-4.5637,-4.5752,-4.5852,-4.5881,-4.5944,-4.5991,-4.6019,-4.6067,-4.611,-4.6169,-4.6197,-4.6265,-4.6302,-4.6356,-4.6366,-4.6321,-4.6487,-4.6426,-4.6496,-4.6496,-4.6529,-4.6526,-4.6727,-4.6558,-4.6558,-4.6558,-4.6557,0,-4.5792,-4.588,-4.5902,-4.5963,-4.6061,-4.6068,-4.6165,-4.619,-4.6233,-4.6299,-4.6286,-4.6348,-4.636,-4.6425,-4.6435,-4.6532,-4.655,-4.6559,-4.656,-4.6559,-4.6557,-4.6581,-4.657,-4.6563,-4.6562,-4.6561,-4.656,0,-4.5929,-4.5948,-4.6056,-4.6107,-4.6122,-4.6191,-4.6235,-4.6294,-4.6313,-4.6396,-4.6416,-4.6445,-4.6521,-4.6538,-4.6629,-4.6635,-4.675,-4.6744,-4.6732,-4.6731,-4.6798,-4.6791,-4.7019,-4.7049,-4.6863,-4.6865,-4.6867,0,-4.6025,-4.6092,-4.6151,-4.6194,-4.6224,-4.6294,-4.6338,-4.6348,-4.6395,-4.6459,-4.651,-4.6585,-4.6645,-4.6767,-4.6797,-4.6866,-4.6859,-4.6935,-4.6869,-4.6865,-4.6857,-4.6852,-4.6858,-4.6946,-4.6948,-4.6949,-4.6951,0,-4.6193,-4.6199,-4.6263,-4.6331,-4.6383,-4.6437,-4.6488,-4.6525,-4.6542,-4.6595,-4.6672,-4.6719,-4.6812,-4.6885,-4.6955,-4.6985,-4.6971,-4.6972,-4.6991,-4.6988,-4.6978,-4.6982,-4.6763,-4.6966,-4.6964,-4.6963,-4.6962,-4.6962,-4.6311,-4.6369,-4.6419,-4.649,-4.653,-4.6579,-4.6636,-4.6663,-4.6727,-4.6803,-4.6806,-4.689,-4.6941,-4.7034,-4.7068,-4.7134,-4.7111,-4.7139,-4.7146,-4.7152,-4.7157,-4.6971,-4.7147,-4.7147,-4.7147,-4.7146,-4.7146,0,-4.6475,-4.6507,-4.6573,-4.6645,-4.6701,-4.6685,-4.6741,-4.6789,-4.6863,-4.6912,-4.6972,-4.7061,-4.7133,-4.717,-4.7241,-4.7287,-4.7282,-4.7305,-4.73,-4.7307,-4.7175,-4.715,-4.7308,-4.7308,-4.7308,-4.7308,-4.7308,-4.7308,-4.6567,-4.6664,-4.6677,-4.6794,-4.6826,-4.6908,-4.6941,-4.6986,-4.7025,-4.7125,-4.7185,-4.7208,-4.7252,-4.7327,-4.7393,-4.7402,-4.7427,-4.7453,-4.7459,-4.7333,-4.7317,-4.7301,-4.7277,-4.7459,-4.746,-4.7585,-4.7586,-4.7587]},{"header":{"parameterUnit":"m.s-1","parameterCategory":1,"la1":30.2991,"la2":30.254,"lo1":-89.0895,"lo2":-89.0444,"dy":0.0017,"dx":0.0017,"nx":28,"ny":28,"refTime":"2023-09-26T03:00:00:Z","depth":0,"parameterNumber":3,"parameterNumberName":"V-component_of_WINDS"},"data":[0,0,0,0,0,0,0,0,0,0,0,0,0,0,0,0,0,0,0,0,0,0,0,0,0,0,0,0,0,0,0,0,0,0,0,0,0,0,0,0,0,0,0,0,0,0,0,0,0,0,0,0,0,0,0,0,0,0,1.3515,1.3515,0,1.3546,1.3546,1.3547,1.3572,1.3573,1.3573,1.3573,1.3603,1.3603,1.3604,0,0,0,0,0,0,0,0,0,0,0,0,0,1.3476,1.3477,1.3514,1.3515,1.3515,1.3546,1.3546,1.3547,1.3572,1.3573,1.3573,1.3573,1.3603,1.3603,1.3604,0,0,0,0,0,0,0,0,0,0,0,0,0,1.3499,1.3477,1.3514,1.3532,1.3534,1.3546,1.3546,1.3547,1.3572,1.3573,1.3573,1.3573,1.3603,1.3603,1.3604,1.3601,0,0,1.3607,1.3607,0,0,0,0,0,0,0,0,1.3497,1.35,1.3529,1.3531,1.3533,1.3556,1.3544,1.3565,1.3572,1.3557,1.3573,1.3574,1.3587,1.3589,1.3594,1.3602,1.3604,1.3607,1.3607,1.3607,1.3608,0,0,0,0,0,0,0,1.3496,1.3499,1.3527,1.3529,1.3532,1.3538,1.3541,1.3548,1.3569,1.3559,1.3561,1.3564,1.3588,1.3593,1.3595,1.3604,1.3607,1.3607,1.3608,1.3608,1.3613,1.3613,0,0,0,0,0,0,1.3492,1.3497,1.3526,1.3528,1.3516,1.3538,1.3542,1.3548,1.3569,1.3573,1.3564,1.3565,1.3591,1.3594,1.3596,1.3594,1.3607,1.3608,1.3609,1.3614,1.3613,1.3613,0,0,0,0,0,0,1.3491,1.3494,1.3525,1.3513,1.3518,1.3538,1.3544,1.3548,1.3553,1.3573,1.3577,1.3565,1.3592,1.3595,1.36,1.3596,1.3609,1.3609,1.3614,1.3614,1.3613,1.3591,0,0,0,0,0,0,1.349,1.3494,1.3492,1.3513,1.3518,1.3528,1.3544,1.3549,1.3555,1.3557,1.3575,1.3579,1.3592,1.3599,1.3601,1.3597,1.361,1.3615,1.3614,1.3613,1.3592,1.3589,1.3587,0,0,0,0,0,1.3488,1.3484,1.3492,1.3495,1.3517,1.3528,1.3531,1.3547,1.3554,1.3554,1.3567,1.3578,1.3596,1.3599,1.3602,1.3598,1.3615,1.3614,1.3613,1.3593,1.359,1.3587,0,0,0,0,0,0,1.3461,1.3487,1.3496,1.3499,1.3511,1.3532,1.3531,1.3543,1.3553,1.3554,1.3574,1.3578,1.3581,1.359,1.3593,1.3597,1.3607,1.3607,1.3591,1.3588,1.3586,1.3583,1.3611,0,0,0,0,0,1.3455,1.3462,1.3485,1.3484,1.349,1.351,1.3515,1.3527,1.354,1.3545,1.3559,1.3571,1.3579,1.3584,1.3593,1.3594,1.3599,1.3593,1.3591,1.3589,1.3588,1.359,1.3588,1.361,1.361,1.361,0,0,1.3443,1.3458,1.3461,1.3479,1.349,1.3497,1.3514,1.352,1.3525,1.3546,1.3552,1.3563,1.3578,1.3581,1.3583,1.3589,1.3583,1.3588,1.3586,1.3586,1.3589,1.3587,1.3585,1.361,1.361,1.361,0,0,1.3425,1.3437,1.3439,1.345,1.3468,1.3481,1.3482,1.3502,1.351,1.3517,1.3533,1.354,1.3554,1.3564,1.3571,1.356,1.3571,1.3562,1.355,1.3552,1.355,1.3549,1.3545,1.3543,1.3562,1.3562,1.3562,0,1.3408,1.3419,1.3438,1.3444,1.3452,1.3473,1.3475,1.3485,1.3504,1.3509,1.3515,1.3535,1.3546,1.3553,1.355,1.3555,1.3557,1.3559,1.3549,1.3548,1.3547,1.3543,1.3542,1.356,1.3561,1.3561,1.3561,0,1.3397,1.3405,1.3404,1.3424,1.3431,1.3435,1.3456,1.3461,1.3473,1.3486,1.3494,1.3509,1.3522,1.3524,1.3535,1.3533,1.3536,1.3546,1.3556,1.3543,1.354,1.3539,1.3559,1.3559,1.3559,1.356,0,0,1.336,1.3392,1.3391,1.3401,1.3423,1.3429,1.3435,1.3449,1.3453,1.3466,1.3471,1.3484,1.3494,1.3502,1.3515,1.3517,1.3508,1.3526,1.3527,1.3522,1.3507,1.3499,1.3497,1.3516,1.3516,1.3516,1.3506,0,1.3345,1.3356,1.3375,1.3381,1.3388,1.341,1.3415,1.3429,1.3442,1.3451,1.3465,1.3474,1.3485,1.3491,1.3494,1.3508,1.3505,1.3509,1.3521,1.3521,1.3515,1.3496,1.3487,1.3477,1.3505,1.3505,1.3505,0,1.3328,1.3341,1.3348,1.3371,1.3375,1.3379,1.3395,1.3403,1.3419,1.3429,1.3439,1.3454,1.3461,1.3472,1.3483,1.3485,1.3491,1.3499,1.3499,1.35,1.3511,1.3496,1.3474,1.3473,1.3503,1.3503,1.3503,0,1.33,1.332,1.3327,1.3335,1.3362,1.3364,1.3376,1.3393,1.3401,1.3414,1.342,1.3434,1.3441,1.3451,1.347,1.3475,1.3479,1.349,1.3486,1.3486,1.3485,1.3484,1.3463,1.349,1.349,1.349,1.349,0,1.3281,1.3284,1.3315,1.3319,1.3324,1.3346,1.335,1.3363,1.3379,1.3386,1.3406,1.3412,1.3436,1.3445,1.346,1.3467,1.347,1.3478,1.3481,1.3476,1.3475,1.3479,1.348,1.3489,1.349,1.349,1.349,0,1.325,1.3271,1.328,1.3306,1.3313,1.3315,1.3337,1.3342,1.3357,1.3366,1.337,1.3393,1.3405,1.3425,1.3442,1.3452,1.3457,1.3463,1.3451,1.3453,1.3448,1.3448,1.3429,1.3427,1.3455,1.3455,1.3454,0,1.3235,1.3239,1.3266,1.3273,1.3284,1.3294,1.3303,1.3326,1.3334,1.3356,1.3358,1.3372,1.3384,1.3403,1.3421,1.3435,1.3442,1.3434,1.3444,1.3439,1.3442,1.3441,1.3442,1.3431,1.3431,1.3431,1.343,0,1.3208,1.3219,1.3231,1.3248,1.3258,1.3272,1.3287,1.3291,1.3317,1.3326,1.3339,1.3349,1.3369,1.3382,1.3399,1.3411,1.3425,1.3428,1.3428,1.3421,1.3414,1.3418,1.3444,1.3428,1.3428,1.3428,1.3428,1.3428,1.3185,1.3189,1.321,1.3223,1.3237,1.3251,1.3258,1.3275,1.3287,1.3305,1.3318,1.3331,1.335,1.3374,1.3386,1.3396,1.3402,1.3402,1.3401,1.3401,1.3399,1.3413,1.3399,1.3399,1.3399,1.3399,1.34,0,1.3158,1.3173,1.3185,1.3207,1.3218,1.3232,1.325,1.3258,1.3269,1.3286,1.3299,1.3315,1.3329,1.335,1.3366,1.337,1.3377,1.3374,1.3373,1.3376,1.3392,1.3391,1.3368,1.3368,1.3368,1.3368,1.3368,1.3368,1.3145,1.3154,1.3168,1.3184,1.3199,1.3213,1.3222,1.3235,1.3249,1.3267,1.3279,1.3293,1.3312,1.333,1.3344,1.335,1.3354,1.3349,1.3356,1.3371,1.3374,1.3377,1.3376,1.335,1.335,1.3339,1.3339,1.3339]}]]